This is the latest recevied weather packets stored in our database for station/object AI9F. If no packets are shown the sender has not sent any weather packets the latest 10 day(s).
| Time | Temp. | Humidity | Pressure | Rain* | Wind** | Luminosity | Snow |
|---|---|---|---|---|---|---|---|
| 1777843946 | 21.11° C | 38% | 1012.1 hPa | 0 mm | - | 460 W/m² | - |
| 1777843643 | 21.11° C | 40% | 1012 hPa | 0 mm | - | 474 W/m² | - |
| 1777843340 | 21.11° C | 39% | 1012.1 hPa | 0 mm | - | 490 W/m² | - |
| 1777843038 | 21.11° C | 38% | 1012.4 hPa | 0 mm | - | 503 W/m² | - |
| 1777842734 | 20.56° C | 37% | 1012.6 hPa | 0 mm | - | 516 W/m² | - |
| 1777842429 | 20.56° C | 38% | 1012.8 hPa | 0 mm | - | 530 W/m² | - |
| 1777842127 | 21.11° C | 38% | 1013 hPa | 0 mm | - | 543 W/m² | - |
| 1777841822 | 20.56° C | 38% | 1012.8 hPa | 0 mm | - | 558 W/m² | - |
| 1777841518 | 20.56° C | 37% | 1013.2 hPa | 0 mm | - | 577 W/m² | - |
| 1777841215 | 20.56° C | 40% | 1013.2 hPa | 0 mm | - | 591 W/m² | - |
| 1777840913 | 20.56° C | 38% | 1013.3 hPa | 0 mm | - | 607 W/m² | - |
| 1777840609 | 20.56° C | 40% | 1013.4 hPa | 0 mm | - | 619 W/m² | - |
| 1777840307 | 20.56° C | 39% | 1013.7 hPa | 0 mm | - | 633 W/m² | - |
| 1777840004 | 20.56° C | 40% | 1013.5 hPa | 0 mm | - | 641 W/m² | - |
| 1777839702 | 20.56° C | 40% | 1013.6 hPa | 0 mm | - | 653 W/m² | - |
| 1777839400 | 20.56° C | 40% | 1013.7 hPa | 0 mm | - | 677 W/m² | - |
| 1777839097 | 20.56° C | 41% | 1013.9 hPa | 0 mm | - | 620 W/m² | - |
| 1777838793 | 20.56° C | 38% | 1014.2 hPa | 0 mm | - | 737 W/m² | - |
| 1777838490 | 20.56° C | 38% | 1014.4 hPa | 0 mm | - | 715 W/m² | - |
| 1777838187 | 20° C | 44% | 1014.6 hPa | 0 mm | - | 730 W/m² | - |
| 1777837884 | 20° C | 41% | 1014.7 hPa | 0 mm | - | 640 W/m² | - |
| 1777837581 | 20° C | 39% | 1014.8 hPa | 0 mm | - | 741 W/m² | - |
| 1777837276 | 20° C | 41% | 1015.3 hPa | 0 mm | - | 733 W/m² | - |
| 1777836973 | 20° C | 40% | 1015 hPa | 0 mm | - | 740 W/m² | - |
| 1777836668 | 20° C | 41% | 1015.3 hPa | 0 mm | - | 761 W/m² | - |
* Rain latest hour (hover to see other rain measurements)
** Current wind speed in m/s (hover to see current wind gust speed)